Regional Weather Roundup
Issued by NWS Jackson, KY

Home | Current Version | Previous Version | Text Only | Print | Product List | Glossary Off
Versions: 1 2 3 4 5 6 7 8 9 10 11 12 13 14 15 16 17 18 19 20 21 22 23 24 25 26 27 28 29 30 31 32 33 34 35 36 37 38 39 40 41 42 43 44 45 46 47 48 49 50

000
ASUS43 KJKL 201410
RWRJKL

EAST KENTUCKY HOURLY WEATHER ROUNDUP
NATIONAL WEATHER SERVICE JACKSON KY
900 AM EST MON NOV 20 2017

NOTE: "FAIR" INDICATES FEW OR NO CLOUDS BELOW 12,000 FEET WITH
NO SIGNIFICANT WEATHER AND/OR OBSTRUCTIONS TO VISIBILITY.

* THESE REPORTS ARE NOT UNDER NWS QUALITY CONTROL AND MAY NOT
  REPORT WEATHER SUCH AS PRECIPITATION AND FOG.

KYZ079-080-083-085-087-088-110-112-115-119-120-201500
...EASTERN KENTUCKY...

CITY           SKY/WX    TMP DP  RH WIND       PRES   REMARKS
JACKSON        SUNNY     31  27  85 VRB3      30.25S
LONDON         SUNNY     28  26  92 S3        30.27R
SOMERSET*      CLOUDY    28  28 100 CALM      30.30R
MONTICELLO*    SUNNY     33  30  88 VRB7      30.30R WCI  27
WILLIAMSBURG*  SUNNY     28  28 100 CALM      30.28R
MIDDLESBORO*   SUNNY     28  27  99 CALM      30.30R
HARLAN APT*    CLOUDY    28  27  93 CALM      30.28R VSB<1/4
PIKE CO APT*     N/A     31  29  92 CALM      30.26R
BIG SANDY APT* SUNNY     32  27  84 SW6       30.27R WCI  26
MOREHEAD APT*  FLURRIES  32  25  74 S6        30.28R WCI  26
$$

KYZ035-036-041-042-044-050-067-078-099-201500
...CENTRAL KENTUCKY...

CITY           SKY/WX    TMP DP  RH WIND       PRES   REMARKS
MT STERLING*   SUNNY     30  27  86 SW5       30.28R WCI  25
FLEMING/MASON* SUNNY     30  24  79 SW6       30.28R WCI  24
DANVILLE*      SUNNY     30  27  86 S3        30.27S
LEXINGTON      CLOUDY    31  25  78 S6        30.25S WCI  25
FRANKFORT      CLOUDY    31  23  72 S5        30.25R WCI  26
LOUISVILLE     CLOUDY    32  25  75 SE6       30.26R WCI  26
LEBANON*         N/A     32  25  74 S7        30.26S WCI  26
GLASGOW*       CLOUDY    28  28 100 CALM      30.28S
BOWLING GREEN  SUNNY     31  27  85 CALM      30.29S
$$

KYZ091>093-OHZ055-061-077-WVZ005-015-034-035-042-201500
...SOUTHERN OHIO/WEST VIRGINIA...

CITY           SKY/WX    TMP DP  RH WIND       PRES   REMARKS
COVINGTON      PTSUNNY   29  26  89 S7        30.22S WCI  22
COLUMBUS       MOSUNNY   30  24  78 SW7       30.21R WCI  23
DAYTON         MOSUNNY   29  24  82 S12       30.19S WCI  19
WILMINGTON     SUNNY     28  25  88 SW10      30.22R WCI  19
HUNTINGTON     SUNNY     30  25  81 SW5       30.27R WCI  25
CHARLESTON     SUNNY     33  24  69 SW6       30.26R WCI  28
PINEVILLE*       N/A     31  28  87 MISG      30.29R
BECKLEY        SUNNY     28  22  78 W6        30.19R WCI  22
BLUEFIELD      PTSUNNY   26  22  84 W10       30.19R WCI  16
LOGAN CO APT*    N/A     32  27  80 CALM      30.23S
$$

VAZ002-007-008-TNZ017-027-036-066-071-201500
...SOUTHWEST VIRGINIA/EAST TENNESSEE...

CITY           SKY/WX    TMP DP  RH WIND       PRES   REMARKS
WISE*          SUNNY     30  28  93 CALM      30.22R
JONESVILLE*      N/A     28  27  93 CALM      30.31R
ABINGDON*      SUNNY     32  30  91 W3        30.26R
BRISTOL        MOSUNNY   30  29  96 CALM      30.29R
MORRISTOWN*    SUNNY     32  27  80 E3        30.27R
SEVIERVILLE*   MOSUNNY   30  28  93 CALM      30.30R
KNOXVILLE      SUNNY     32  31  96 CALM      30.29R FOG
LAFOLLETTE*    SUNNY     28  28 100 CALM      30.33R
OAK RIDGE      MIX PCPN  30  30 100 CALM      30.31R FOG
CROSSVILLE     CLOUDY    31  26  82 CALM      30.25R
NASHVILLE      MOSUNNY   35  28  75 CALM      30.30R
$$

...KEY TO REMARKS...
VSB - VISIBILITY IN MILES
WCI - WIND CHILL INDEX
HX  - HEAT INDEX

$$



USA.gov is the U.S. government's official web portal to all federal, state and local government web resources and services.